STARLINK-35482 (66346 NORAD) Tracking and Keplerian Element Data

This shows tracking and keplerian element data for the satellite.

Feedback or suggestion? Click here.




ElementValue
Catalog66346
NameSTARLINK-35482
Epoch Orbit803
Epoch Day353.9160697
Epoch Year2025
RAAN303.9306
Inclination43.0008
Eccentricity0.0001199
Argument of Perigee266.3005
Mean Anonmoly93.7714
Mean Motion15.40723121
Decay Rate0.00034163
L11 66346U 25253AD 25353.91606970 .00034163 00000+0 82081-3 0 9996
L22 66346 43.0008 303.9306 0001199 266.3005 93.7714 15.40723121 8036



Live tracking and technical data element details for STARLINK-35482 (NORAD 66346). STARLINK-35482 can be tracked NOW for your location showing map with azimuth and elevation plus other details from your city location.







IsCatalogInMostPopularTable: catalog: 66346, numindb: 8
Update: records affected: 1



GetName: 66346 STARLINK-35482

Hit Count: updated at: Tue, 21 Apr 2026 20:16:55 GMT